"Pseudo-MPEC" for P11a2Kx

Created 2020 Dec 1 14:07:11 UT using Find_Orb

Click here for an explanation of pseudo-MPECs

 
 Astrometry: 
     P11a2Kx  C2020 11 27.34327 05 41 52.92 -25 45 42.5    ~C17b 20.3 GVNEOCPG96
     P11a2Kx  C2020 11 27.34838 05 41 52.32 -25 45 29.8    ~C17b 20.9 GVNEOCPG96
     P11a2Kx  C2020 11 27.35862 05 41 51.37 -25 45 05.0    ~C17b 20.1 GVNEOCPG96
     P11a2Kx  C2020 11 29Rpjt-0#(\(o:$.X8Ov+^*Hij:/3AstrometryV;)i6#ym_5OT5jXF51
     P11a2Kx  C2020 11 29wKW+GcC+e2OYubijEiYredacted;5FX]+G296Vr42Ck=D.;)M'X,F51
     P11a2Kx  C2020 11 29#AuGf?'Ve99KaKdQ\6en31f1s':!.s-en]34V:ju-)Fn/eFk!e95F51
     P11a2Kx  C2020 11 29P%J`;Ko424(IG%;-UIj!qS@qDB]81gclick=17$M:)avRcm2$TA'F51
     P11a2Kx |C2020 11 30Dvyx=pv9-4Ju,5fd)k02,aoThere*N.KU,HT^e%[$2I(-Uqts3Wd807
     P11a2Kx |C2020 11 30xiq_a@9lnGqJ-?Xl^]MbJPD1`+Y)bD'+o@G5Ym^Zd.h*@ZhXa+\7807
     P11a2Kx |C2020 11 30OmQEy1O;/V!$Qm0oQEY9gcZ!,l7N-@A_ftp;j%KE]GPg\fOu-m/.807
     P11a2Kx pC2020 11 30y!Jj)1d%pPy@ECyKh\'igH_I45xA(.)[c-Km?iri@K0?I/j7FL[gL01
     P11a2Kx pC2020 11 30t@jcUh^7vhr`uw-ng%^a*nZSW%EWQDK4h0WMGS;tmjq98YwSE4qVL01
     P11a2Kx IC2020 11 309p4jP2oQ!^aX1b1\YJ.Ycm:T1_B\p5S*%]pNhqfOOwl;W(t(j-kkL01
     P11a2Kx pC2020 12 01,y1EuH;0Uyi8p='forg*0=[Vexplanation29_,uO9ft:Ls%rn'gL01
     P11a2Kx |C2020 12 01X\gGO7?V$#@u^w-Q\mLe-m`!?3Zk(b3:xTbMk']I*XyBU,tkTV;m807
     P11a2Kx |C2020 12 01g*P22lEkyhrDIVn-4mPCS$4-XD;GEIY1;Y7,2%W)5%7ILAl%yZgW807
     P11a2Kx |C2020 12 01$i7?b^d1uLQg3cm8tP'ygPKbv+aVrs4;0TWIrhgHo5\[\NV2UUT+807

Station data:
(807) Cerro Tololo Observatory, La Serena  (S30.169136 W70.805900)  Chile.
(F51) Pan-STARRS 1, Haleakala  (N20.707235 W156.255910)  US/Hawaii.
   Observers N. Primak, A. Schultz, S. Watters, J. Thiel, T. Goggia. Measurer
   PS1 Science Consortium. 1.8-m Ritchey-Chrétien + CCD.
(G96) Mt. Lemmon Survey  (N32.442754 W110.788720)  US/Arizona.  Observers T.
   A. Pruyne, B. M. Africano, E. J. Christensen, G. A. Farneth, D. C. Fuls,
   A. R. Gibbs, A. D. Grauer, H. Gröller, J. A. Johnson, R. A. Kowalski, S.
   M. Larson, G. J. Leonard, D. Rankin, R. L. Seaman, F. C. Shelly. 1.5-m
   reflector + 10K CCD.
(L01) Višnjan Observatory, Tičan  (N45.290900 E13.749300)  Croatia.
   Observers K. Korlević, E. Pettarin. Measurer E. Pettarin. 1.0-m f/2.9
   reflector + CCD.

Orbital elements:  P11a2Kx
   Perihelion 2020 Nov 24.127870 +/- 1.26 TT =  3:04:08 (JD 2459177.627870)
Epoch 2020 Dec  1.0 TT = JDT 2459184.5   Earth MOID: 0.4478   AutoNEOCP
M   1.96854743 +/- 0.43             (J2000 ecliptic)
n   0.28645376 +/- 0.0142           Peri.  328.26265 +/- 0.9
a   2.27911561 +/- 0.0753           Node    94.46865 +/- 0.19
e   0.3914701 +/- 0.0166            Incl.   36.67968 +/- 0.6
P   3.44                   H 19.7   G  0.15   U  9.9  
q 1.38690990 +/- 0.00835    Q 3.17132131 +/- 0.149
From 17 observations 2020 Nov. 27-Dec. 1; mean residual 0".36
Residuals in arcseconds: 
201127 G96  .05-  .11-    201129 F51  .02-  .06-    201130 L01  .20-  .38+    
201127 G96  .79-  .18+    201130 807  .45-  .57-    201201 L01  .06-  .20-    
201127 G96  1.1+  .08+    201130 807  .15-  .25-    201201 807  .61+  .07+    
201129 F51  .20-  .11+    201130 807  .14+  .02+    201201 807  .55+  .10+    
201129 F51  .15-  .03+    201130 L01  .37-  .01-    201201 807  .57+  .12+    
201129 F51  .02+  .06-    201130 L01  .49-  .11+    

Ephemerides (geocentric):
Date (UTC) HH   RA              Dec         delta   r     elong  mag " sig PA
---- -- -- --  -------------   -----------  ------ ------ -----  --- ---- ---
2020 12 01 14  05 34 21.872   -22 36 27.62  .51452 1.3886 133.0 20.3 .088  25
2020 12 01 15  05 34 17.204   -22 34 25.73  .51430 1.3886 133.0 20.3 .090  28
2020 12 01 16  05 34 12.533   -22 32 23.62  .51408 1.3886 133.0 20.3 .091  31
2020 12 01 17  05 34 07.856   -22 30 21.31  .51386 1.3886 133.1 20.3 .093  34
2020 12 01 18  05 34 03.176   -22 28 18.79  .51363 1.3887 133.1 20.3 .095  37
2020 12 01 19  05 33 58.492   -22 26 16.06  .51341 1.3887 133.2 20.3 .098  40
2020 12 01 20  05 33 53.803   -22 24 13.13  .51319 1.3887 133.2 20.3 .101  43
2020 12 01 21  05 33 49.110   -22 22 09.98  .51297 1.3887 133.3 20.3 .104  46
2020 12 01 22  05 33 44.413   -22 20 06.63  .51275 1.3887 133.3 20.3 .107  48
2020 12 01 23  05 33 39.712   -22 18 03.08  .51253 1.3888 133.4 20.3 .111  51
2020 12 02 00  05 33 35.007   -22 15 59.31  .51231 1.3888 133.4 20.3 .115  54
2020 12 02 01  05 33 30.298   -22 13 55.34  .51209 1.3888 133.5 20.3 .119  56
2020 12 02 02  05 33 25.585   -22 11 51.16  .51187 1.3888 133.5 20.3 .124  58
2020 12 02 03  05 33 20.867   -22 09 46.77  .51165 1.3888 133.6 20.3 .129  61
2020 12 02 04  05 33 16.146   -22 07 42.18  .51143 1.3889 133.6 20.3 .134  63
2020 12 02 05  05 33 11.420   -22 05 37.38  .51121 1.3889 133.7 20.3 .140  65
2020 12 02 06  05 33 06.691   -22 03 32.37  .51100 1.3889 133.7 20.3 .146  66
2020 12 02 07  05 33 01.957   -22 01 27.15  .51078 1.3889 133.7 20.3 .152  68
2020 12 02 08  05 32 57.220   -21 59 21.72  .51056 1.3889 133.8 20.3 .158  70
2020 12 02 09  05 32 52.478   -21 57 16.09  .51035 1.3890 133.8 20.3 .165  72
2020 12 02 10  05 32 47.732   -21 55 10.24  .51013 1.3890 133.9 20.3 .172  73
2020 12 02 11  05 32 42.983   -21 53 04.19  .50991 1.3890 133.9 20.3 .179  75
2020 12 02 12  05 32 38.229   -21 50 57.93  .50970 1.3890 134.0 20.3 .187  76
2020 12 02 13  05 32 33.472   -21 48 51.46  .50948 1.3890 134.0 20.3 .194  77
2020 12 02 14  05 32 28.710   -21 46 44.79  .50927 1.3891 134.1 20.2 .203  79
2020 12 02 15  05 32 23.945   -21 44 37.91  .50905 1.3891 134.1 20.2 .211  80
2020 12 02 16  05 32 19.176   -21 42 30.81  .50884 1.3891 134.2 20.2 .219  81
2020 12 02 17  05 32 14.403   -21 40 23.51  .50863 1.3891 134.2 20.2 .228  82
2020 12 02 18  05 32 09.626   -21 38 16.00  .50841 1.3891 134.3 20.2 .237  83
2020 12 02 19  05 32 04.845   -21 36 08.28  .50820 1.3892 134.3 20.2 .247  84
2020 12 02 20  05 32 00.060   -21 34 00.36  .50799 1.3892 134.4 20.2 .256  85
2020 12 02 21  05 31 55.271   -21 31 52.22  .50778 1.3892 134.4 20.2 .266  86
2020 12 02 22  05 31 50.479   -21 29 43.88  .50757 1.3892 134.4 20.2 .276  87
2020 12 02 23  05 31 45.682   -21 27 35.33  .50735 1.3893 134.5 20.2 .287  87
2020 12 03 00  05 31 40.882   -21 25 26.57  .50714 1.3893 134.5 20.2 .297  88
2020 12 03 01  05 31 36.078   -21 23 17.60  .50693 1.3893 134.6 20.2 .308  89
2020 12 03 02  05 31 31.271   -21 21 08.42  .50672 1.3893 134.6 20.2 .320  90
2020 12 03 03  05 31 26.459   -21 18 59.03  .50651 1.3893 134.7 20.2 .331  90
2020 12 03 04  05 31 21.644   -21 16 49.44  .50630 1.3894 134.7 20.2 .343  91
2020 12 03 05  05 31 16.825   -21 14 39.63  .50610 1.3894 134.8 20.2 .355  92
2020 12 03 06  05 31 12.002   -21 12 29.62  .50589 1.3894 134.8 20.2 .367  92
2020 12 03 07  05 31 07.176   -21 10 19.40  .50568 1.3894 134.9 20.2 .380  93
2020 12 03 08  05 31 02.345   -21 08 08.97  .50547 1.3895 134.9 20.2 .392  94
2020 12 03 09  05 30 57.512   -21 05 58.33  .50526 1.3895 135.0 20.2 .406  94
2020 12 03 10  05 30 52.674   -21 03 47.48  .50506 1.3895 135.0 20.2 .419  95
2020 12 03 11  05 30 47.833   -21 01 36.42  .50485 1.3895 135.1 20.2 .433  95
2020 12 03 12  05 30 42.988   -20 59 25.16  .50464 1.3895 135.1 20.2 .447  96
2020 12 03 13  05 30 38.140   -20 57 13.68  .50444 1.3896 135.1 20.2 .461  96